EW2832 Weather Reports


time (UTC)temp
C
wind
direction
speed
KPH
gust
KPH
rain 1hr
cm
rain 24hr
cm
rain mn
cm
humidity
%
barometer
mb
20260502123459 4 352 6.4 12.9 0.00 0.20 0.00 47 1017.9
20260502122957 4 355 6.4 6.4 0.00 0.20 0.00 48 1018.0
20260502122457 4 356 6.4 6.4 0.00 0.23 0.00 48 1017.9
20260502121958 4 344 6.4 6.4 0.00 0.23 0.00 48 1017.9
20260502120958 4 1 6.4 6.4 0.00 0.30 0.00 47 1017.9
20260502115458 3 355 4.8 6.4 0.00 0.33 0.00 49 1017.9
20260502114958 3 356 4.8 6.4 0.00 0.36 0.00 49 1017.9
20260502113957 3 10 1.6 4.8 0.00 0.36 0.00 50 1017.8
20260502113457 3 25 1.6 4.8 0.00 0.36 0.00 49 1017.8
20260502112958 3 31 3.2 4.8 0.00 0.38 0.00 49 1017.8
20260502112458 3 39 3.2 4.8 0.00 0.38 0.00 49 1017.8
20260502111957 3 43 3.2 6.4 0.00 0.38 0.00 49 1017.7
20260502111457 3 24 3.2 6.4 0.00 0.38 0.00 50 1017.7
20260502110958 3 9 3.2 6.4 0.00 0.43 0.00 49 1017.7
20260502110458 3 2 3.2 6.4 0.00 0.46 0.00 49 1017.6
20260502105959 3 30 3.2 6.4 0.00 0.46 0.00 49 1017.6
20260502105457 3 64 3.2 6.4 0.00 0.46 0.00 49 1017.6
20260502104957 3 62 3.2 6.4 0.00 0.46 0.00 49 1017.7
20260502104457 3 41 4.8 11.3 0.00 0.46 0.00 49 1017.5
20260502103959 3 29 6.4 11.3 0.00 0.46 0.00 49 1017.3
20260502102958 3 358 6.4 11.3 0.00 0.46 0.00 49 1017.4
20260502102457 3 19 6.4 11.3 0.00 0.46 0.00 49 1017.4
20260502101957 3 8 8.0 11.3 0.00 0.46 0.00 48 1017.4
20260502101458 3 354 6.4 11.3 0.00 0.46 0.00 49 1017.5
20260502100958 3 354 4.8 6.4 0.00 0.46 0.00 51 1017.4
20260502091459 3 1 4.8 6.4 0.00 0.46 0.00 49 1017.1
20260502090957 3 1 3.2 6.4 0.00 0.46 0.00 48 1017.2
20260502090457 3 14 4.8 6.4 0.00 0.48 0.00 46 1017.1
20260502071458 3 27 6.4 9.7 0.00 0.61 0.00 38 1016.7
20260502070957 3 9 6.4 9.7 0.00 0.61 0.00 36 1016.8
20260502070457 3 5 6.4 8.0 0.00 0.61 0.00 36 1016.9
20260502065956 3 16 6.4 8.0 0.00 0.61 0.00 36 1016.7
20260502065457 3 25 6.4 9.7 0.00 0.61 0.00 37 1016.7
20260502064958 3 20 8.0 11.3 0.00 0.64 0.00 36 1016.7
20260502064457 3 16 8.0 12.9 0.00 0.64 0.00 36 1016.7
20260502063957 3 23 6.4 12.9 0.00 0.66 0.00 37 1016.7
20260502063457 3 56 6.4 11.3 0.00 0.66 0.00 38 1016.7
20260502062957 3 48 6.4 9.7 0.00 0.69 0.00 37 1016.7
20260502062457 3 33 6.4 9.7 0.00 0.69 0.00 36 1016.8
20260502061956 3 39 6.4 11.3 0.00 0.71 0.00 36 1016.9
20260502060957 3 12 6.4 6.4 0.00 0.71 0.00 37 1016.9
20260502060457 3 18 6.4 6.4 0.00 0.76 0.00 36 1017.0
20260502055957 3 40 4.8 9.7 0.00 0.76 0.00 36 1016.9
20260502054957 3 29 6.4 9.7 0.00 0.79 0.00 36 1016.9
20260502054457 3 32 6.4 9.7 0.00 0.79 0.00 37 1016.9
20260502053957 3 34 6.4 9.7 0.00 0.79 0.00 38 1016.9
20260502053457 3 21 4.8 8.0 0.00 0.79 0.00 39 1017.1
20260502052957 3 12 4.8 8.0 0.00 0.79 0.00 40 1017.1
20260502052457 3 10 4.8 6.4 0.00 0.79 0.00 39 1017.1
20260502051958 4 18 4.8 6.4 0.00 0.79 0.00 39 1017.0
20260502051456 4 52 6.4 6.4 0.00 0.79 0.00 39 1017.1
20260502050956 4 84 6.4 6.4 0.00 0.79 0.00 40 1017.2
20260502050457 4 71 6.4 8.0 0.00 0.79 0.00 39 1017.2
20260502045957 4 34 4.8 8.0 0.00 0.79 0.00 39 1017.2
20260502045457 4 24 4.8 6.4 0.00 0.81 0.00 41 1017.3
20260502044956 4 38 4.8 6.4 0.00 0.81 0.00 42 1017.3
20260502044457 4 53 4.8 6.4 0.00 0.81 0.00 44 1017.3
20260502043457 4 40 3.2 6.4 0.00 0.81 0.00 46 1017.2
20260502042958 4 30 3.2 6.4 0.00 0.81 0.00 46 1017.2
20260502042457 4 89 1.6 4.8 0.00 0.81 0.00 48 1017.0
20260502041957 4 41 3.2 3.2 0.00 0.81 0.00 48 1017.0
20260502040957 4 39 3.2 4.8 0.00 0.81 0.00 48 1017.0
20260502035957 4 31 3.2 3.2 0.00 0.81 0.00 49 1017.0
20260502035457 4 28 3.2 3.2 0.00 0.81 0.81 50 1017.0
20260502034457 4 83 3.2 6.4 0.00 0.81 0.81 50 1017.0
20260502033956 4 89 3.2 6.4 0.00 0.81 0.81 51 1016.9
20260502033457 4 51 3.2 4.8 0.03 0.81 0.81 51 1016.9
20260502032957 4 39 3.2 4.8 0.03 0.81 0.81 51 1016.7
20260502032457 4 68 1.6 4.8 0.03 0.81 0.81 51 1016.7
20260502031956 4 61 3.2 6.4 0.03 0.81 0.81 52 1016.8
20260502031457 4 46 3.2 6.4 0.03 0.81 0.81 52 1016.7
20260502030958 4 68 3.2 6.4 0.03 0.81 0.81 53 1016.8
20260502030456 4 52 4.8 8.0 0.03 0.81 0.81 55 1016.7
20260502025956 4 36 6.4 8.0 0.03 0.81 0.81 55 1016.7
20260502025457 4 38 4.8 6.4 0.03 0.81 0.81 57 1016.6
20260502024956 4 57 3.2 9.7 0.03 0.81 0.81 57 1016.8
20260502024457 4 69 4.8 9.7 0.03 0.81 0.81 57 1016.9
20260502023958 4 80 3.2 9.7 0.03 0.81 0.81 58 1016.7
20260502023456 4 62 4.8 6.4 0.00 0.79 0.79 59 1016.8
20260502022457 4 30 3.2 6.4 0.00 0.79 0.79 59 1016.7
20260502021958 4 39 3.2 6.4 0.00 0.79 0.79 59 1016.7
20260502021456 4 358 3.2 6.4 0.00 0.79 0.79 59 1016.7
20260502020457 4 5 4.8 6.4 0.00 0.79 0.79 60 1016.7
20260502015957 4 54 4.8 6.4 0.00 0.79 0.79 60 1016.6
20260502015457 4 45 3.2 6.4 0.00 0.79 0.79 60 1016.4
20260502014957 5 25 4.8 8.0 0.00 0.79 0.79 59 1016.5
20260502014457 5 20 6.4 12.9 0.00 0.79 0.79 59 1016.4
20260502013956 5 20 6.4 12.9 0.00 0.79 0.79 59 1016.4
20260502013457 5 22 8.0 12.9 0.00 0.79 0.79 57 1016.2
20260502011456 5 12 8.0 12.9 0.00 0.79 0.79 54 1016.0
20260502010956 6 1 6.4 12.9 0.00 0.79 0.79 55 1016.0
20260502010458 6 10 4.8 6.4 0.00 0.79 0.79 54 1015.8
20260502005957 6 16 4.8 6.4 0.00 0.79 0.79 54 1015.7
20260502005456 6 8 4.8 8.0 0.00 0.79 0.79 54 1015.8
20260502004456 6 2 4.8 6.4 0.00 0.79 0.79 54 1015.7
20260502003957 6 5 4.8 6.4 0.00 0.79 0.79 55 1015.6
20260502002956 6 11 3.2 6.4 0.00 0.79 0.79 55 1015.4
20260502001957 6 28 3.2 3.2 0.00 0.79 0.79 54 1015.4
20260502000456 6 52 6.4 6.4 0.00 0.79 0.79 51 1015.3
20260501235957 6 40 6.4 8.0 0.00 0.79 0.79 51 1015.2
20260501235456 6 30 6.4 8.0 0.00 0.79 0.79 50 1015.3
20260501234957 6 30 6.4 11.3 0.00 0.79 0.79 50 1015.2
20260501234457 6 26 6.4 11.3 0.00 0.79 0.79 49 1015.2
20260501233957 6 33 6.4 12.9 0.00 0.79 0.79 49 1015.3
20260501233456 6 34 6.4 12.9 0.00 0.79 0.79 48 1015.2
20260501232958 6 12 4.8 8.0 0.00 0.79 0.79 48 1015.1
20260501232457 6 341 4.8 6.4 0.03 0.79 0.79 49 1014.9
20260501231957 7 329 4.8 6.4 0.03 0.79 0.79 51 1014.9
20260501231457 6 324 4.8 8.0 0.03 0.79 0.79 51 1015.0
20260501230957 6 317 4.8 8.0 0.03 0.79 0.79 51 1014.9
20260501230456 6 307 4.8 6.4 0.03 0.79 0.79 51 1014.9
20260501225956 6 304 6.4 8.0 0.03 0.79 0.79 51 1014.8
20260501225457 6 303 4.8 8.0 0.03 0.79 0.79 51 1015.0
20260501224457 7 289 6.4 8.0 0.03 0.79 0.79 50 1014.8
20260501223956 7 259 4.8 8.0 0.03 0.79 0.79 52 1014.9
20260501223456 7 294 3.2 6.4 0.03 0.79 0.79 51 1014.8
20260501222957 7 325 4.8 12.9 0.03 0.79 0.79 51 1014.8
20260501221956 7 298 12.9 17.7 0.00 0.76 0.76 50 1014.8
20260501221457 7 219 11.3 14.5 0.00 0.76 0.76 51 1015.0
20260501215957 7 167 19.3 22.5 0.00 0.76 0.76 58 1014.7
20260501215457 7 174 20.9 24.1 0.00 0.76 0.76 58 1014.8
20260501214956 7 175 19.3 24.1 0.00 0.76 0.76 58 1014.5
20260501213956 7 169 20.9 24.1 0.00 0.76 0.76 58 1014.5
20260501212957 8 169 17.7 20.9 0.00 0.76 0.76 59 1014.3
20260501212456 7 176 14.5 17.7 0.00 0.76 0.76 59 1014.4
20260501210957 7 181 17.7 17.7 0.00 0.76 0.76 57 1014.3
20260501210456 7 176 17.7 17.7 0.00 0.76 0.76 57 1014.2
20260501205956 7 176 17.7 22.5 0.00 0.76 0.76 57 1014.2
20260501205457 8 181 19.3 24.1 0.00 0.76 0.76 57 1014.3
20260501204956 8 183 19.3 24.1 0.00 0.76 0.76 57 1014.2
20260501204456 8 184 16.1 19.3 0.00 0.76 0.76 57 1014.3
20260501203956 8 181 16.1 17.7 0.00 0.76 0.76 58 1014.2
20260501203456 8 175 16.1 17.7 0.00 0.76 0.76 59 1014.1
20260501202956 8 177 16.1 19.3 0.00 0.76 0.76 59 1014.2
20260501202459 7 185 16.1 19.3 0.00 0.76 0.76 59 1014.1
20260501201956 7 174 16.1 17.7 0.00 0.76 0.76 59 1014.1
20260501201456 7 172 16.1 17.7 0.00 0.76 0.76 59 1014.1
20260501200956 7 181 16.1 16.1 0.00 0.76 0.76 58 1014.2
20260501200456 8 181 16.1 17.7 0.00 0.76 0.76 58 1014.3
20260501195956 8 181 16.1 17.7 0.00 0.76 0.76 58 1014.2
20260501195456 8 181 16.1 17.7 0.00 0.76 0.76 58 1014.1
20260501194456 8 177 19.3 20.9 0.00 0.76 0.76 58 1014.1
20260501193957 8 181 19.3 22.5 0.00 0.76 0.76 58 1014.0
20260501193457 8 181 19.3 22.5 0.00 0.76 0.76 57 1013.9
20260501192957 8 178 16.1 19.3 0.00 0.76 0.76 57 1013.9
20260501192456 8 183 14.5 17.7 0.00 0.76 0.76 56 1014.0
20260501191956 8 187 14.5 17.7 0.00 0.76 0.76 57 1014.0
20260501191457 8 184 12.9 17.7 0.00 0.76 0.76 56 1013.9
20260501185456 8 187 9.7 12.9 0.00 0.76 0.76 48 1013.9
20260501184957 8 192 8.0 12.9 0.00 0.76 0.76 44 1014.0
20260501184456 9 84 6.4 9.7 0.00 0.76 0.76 38 1013.8
20260501183456 9 28 4.8 11.3 0.00 0.76 0.76 37 1013.6
20260501182957 10 18 4.8 9.7 0.00 0.76 0.76 39 1013.6
20260501182456 9 9 6.4 9.7 0.00 0.76 0.76 42 1013.7
20260501181956 8 358 6.4 8.0 0.00 0.76 0.76 45 1013.6
20260501181456 8 359 8.0 9.7 0.00 0.76 0.76 45 1013.7
20260501180457 8 51 6.4 9.7 0.00 0.76 0.76 49 1013.5
20260501175957 8 5 8.0 12.9 0.00 0.76 0.76 49 1013.7
20260501175456 8 1 9.7 16.1 0.00 0.76 0.76 51 1013.6
20260501174956 8 22 9.7 16.1 0.00 0.76 0.76 55 1013.6
20260501174456 7 10 8.0 12.9 0.00 0.76 0.76 55 1013.6
20260501173957 7 359 8.0 14.5 0.00 0.76 0.76 57 1013.5
20260501173456 7 347 6.4 14.5 0.00 0.76 0.76 61 1013.5
20260501172956 7 24 4.8 8.0 0.00 0.76 0.76 67 1013.6
20260501171956 6 31 6.4 9.7 0.00 0.76 0.76 69 1013.6
20260501171456 6 25 4.8 6.4 0.00 0.76 0.76 70 1013.6
20260501170957 6 356 1.6 6.4 0.00 0.76 0.76 70 1013.7
20260501170456 6 185 1.6 3.2 0.00 0.76 0.76 71 1013.6
20260501164457 6 113 3.2 4.8 0.10 0.76 0.76 70 1013.8
20260501163456 5 144 3.2 6.4 0.13 0.76 0.76 70 1013.7
20260501162957 5 121 1.6 3.2 0.13 0.76 0.76 69 1013.8
20260501162456 5 13 0.0 3.2 0.13 0.76 0.76 68 1013.8
20260501161957 5 321 1.6 3.2 0.13 0.76 0.76 68 1013.8
20260501161456 5 313 4.8 11.3 0.13 0.76 0.76 67 1013.7
20260501160957 5 314 9.7 11.3 0.13 0.76 0.76 66 1013.7
20260501160456 5 338 12.9 17.7 0.13 0.76 0.76 63 1013.8
20260501155955 5 2 11.3 17.7 0.13 0.76 0.76 63 1013.7
20260501153456 6 101 4.8 6.4 0.00 0.64 0.64 69 1013.6
20260501151955 6 35 4.8 9.7 0.00 0.64 0.64 70 1013.6
20260501151456 6 32 4.8 9.7 0.00 0.64 0.64 71 1013.3
20260501150956 6 42 4.8 6.4 0.00 0.64 0.64 71 1013.4
20260501150455 5 42 3.2 4.8 0.00 0.64 0.64 71 1013.5
20260501145956 5 48 1.6 4.8 0.00 0.64 0.64 71 1013.8
20260501144956 5 349 3.2 4.8 0.00 0.64 0.64 70 1013.7
20260501143955 5 41 1.6 3.2 0.03 0.64 0.64 70 1013.8
20260501143457 5 45 1.6 3.2 0.03 0.64 0.64 70 1013.7
20260501142956 5 60 1.6 4.8 0.03 0.64 0.64 70 1013.8
20260501142456 5 45 3.2 4.8 0.03 0.64 0.64 70 1013.8
20260501141955 5 50 3.2 4.8 0.03 0.64 0.64 70 1013.7